Torna al catalogo

STARLINK-38092

AttivoComunicazioniVLEO
NORAD 100012·PAYLOAD·🇺🇸 United States

Lanciato Jul 14, 2026 da Vandenberg Space Force Base

Loading…

Prossimi Passaggi (prossime 24 ore)

TLE

AggiornatoSource: Space-Track

Epoca: Sep 14, 2026, 14:47 UTC

1 A0012U 26160M   26257.61650466 -.00559989  00000-0 -39572-2 0  9999
2 A0012  70.0001 211.6479 0004002 255.2010 104.8745 15.75277855 11063

Traccia STARLINK-38092 in tempo reale con AllMySat

Download on the App Store